Date,TemperatureHighF,TemperatureAvgF,TemperatureLowF,DewpointHighF,DewpointAvgF,DewpointLowF,HumidityHigh,HumidityAvg,HumidityLow,PressureMaxIn,PressureMinIn,WindSpeedMaxMPH,WindSpeedAvgMPH,GustSpeedMaxMPH,PrecipitationSumIn
2013-2-1,57,48,40,49,43,38,94,84,63,0.00,40.00,5,3,0,0.00
2013-2-2,53,49,42,48,45,39,89,85,78,0.00,40.00,9,4,0,0.00
2013-2-3,53,49,42,46,44,39,91,85,75,0.00,40.00,13,8,0,0.00
2013-2-4,50,48,45,46,44,41,91,86,81,0.00,40.00,10,6,0,0.00
2013-2-5,53,49,45,48,44,40,89,83,78,0.00,40.00,11,5,0,0.00
2013-2-6,53,46,38,47,42,36,92,86,76,0.00,40.00,7,3,0,0.00
2013-2-7,53,48,40,47,43,38,91,82,59,0.00,40.00,9,4,0,0.00
2013-2-8,51,49,47,44,42,38,79,75,70,0.00,40.00,18,14,0,0.00
2013-2-9,53,46,39,44,37,32,86,71,58,0.00,40.00,16,8,0,0.00
2013-2-10,53,43,35,45,38,32,91,83,71,0.00,40.00,8,3,0,0.00
2013-2-11,49,41,37,45,38,33,91,88,84,0.00,40.00,10,3,0,0.00
2013-2-12,52,46,41,46,43,39,92,89,78,0.00,40.00,5,3,0,0.00
2013-2-13,54,46,38,48,43,37,92,88,79,0.00,40.00,13,7,0,0.00
2013-2-14,54,49,40,48,45,38,91,85,72,0.00,40.00,12,4,0,0.00
2013-2-15,66,55,41,49,42,37,90,64,35,0.00,40.00,7,4,0,0.00
2013-2-16,52,48,43,47,43,37,89,83,72,0.00,40.00,13,8,0,0.00
2013-2-17,53,49,46,45,42,40,89,79,67,0.00,40.00,17,10,0,0.00
2013-2-18,50,47,41,43,41,38,87,78,70,0.00,40.00,19,11,0,0.00
2013-2-19,49,46,44,44,39,36,88,77,67,0.00,40.00,20,10,0,0.00
2013-2-20,52,47,43,43,40,35,81,74,68,0.00,40.00,19,12,0,0.00
2013-2-21,52,48,45,43,41,37,85,76,64,0.00,40.00,19,12,0,0.00
2013-2-22,53,49,45,46,42,39,86,78,71,0.00,40.00,14,8,0,0.00
2013-2-23,51,48,46,45,41,37,88,75,63,0.00,40.00,24,13,0,0.00
2013-2-24,52,48,44,43,40,36,83,73,63,0.00,40.00,16,10,0,0.00
2013-2-25,53,49,45,46,43,41,84,79,73,0.00,40.00,17,12,0,0.00
2013-2-26,52,47,42,43,39,34,85,74,64,0.00,40.00,16,9,0,0.00
2013-2-27,46,43,38,42,40,35,89,88,86,0.00,40.00,10,6,0,0.00